Abilene, TX

7:04 AM CDT on May 25, 2017 (GMT -0500)
Abilene Regional

Weather History for KABI - December, 2013

Change the Weather History Date:

Sunday, December 8, 2013

  Actual Average Record
Temperature  
Mean Temperature 31 °F 46 °F  
Max Temperature 41 °F 58 °F 79 °F (1897)
Min Temperature 20 °F 35 °F 10 °F (2005)
Degree Days  
Heating Degree Days 34 19  
Month to date heating degree days 187 142  
Since 1 July heating degree days 659 575  
Cooling Degree Days 0 0  
Month to date cooling degree days 1 0  
Year to date cooling degree days 2723 2408  
Moisture  
Dew Point 22 °F    
Average Humidity 76    
Maximum Humidity 92    
Minimum Humidity 60    
Precipitation  
Precipitation 0.00 in 0.04 in 1.35 in (1899)
Month to date precipitation 0.20 0.32  
Year to date precipitation 22.28 23.91  
Sea Level Pressure  
Sea Level Pressure 30.10 in    
Wind  
Wind Speed 7 mph (South)    
Max Wind Speed 17 mph    
Max Gust Speed 21 mph    
Visibility 10 miles    
Events      
T = Trace of Precipitation, MM = Missing Value Source: NWS Daily Summary

Daily Weather History Graph

Daily Weather History Graph

Search for Another Location

Airport or City:

Trip Planner

Search our weather history database for the weather conditions in past years. The results will help you decide how hot, cold, wet, or windy it might be!

Date:

Astronomy

Dec. 08, 2013 Rise Set
Actual Time 7:28 AM CST 5:33 PM CST
Civil Twilight 7:01 AM CST 6:00 PM CST
Nautical Twilight 6:30 AM CST 6:30 PM CST
Astronomical Twilight 6:00 AM CST 7:00 PM CST
Moon 12:05 PM CST (12/8) No Moon Set
Length of Visible Light 10h 59m
Length of Day
10h 05m
Waxing Crescent, 40% of the Moon is Illuminated
Dec 8
Waxing Crescent
Dec 9
First Quarter
Dec 17
Full
Dec 25
Last Quarter
Jan 1
New

Hourly Weather History & Observations

Time (CST) Temp. Windchill Dew Point Humidity Pressure Visibility Wind Dir Wind Speed Gust Speed Precip Events Conditions
12:52 AM 19.9 °F 14.9 °F 12.0 °F 71% 30.24 in 10.0 mi SSE 3.5 mph - N/A   Overcast
1:52 AM 21.0 °F 16.2 °F 14.0 °F 74% 30.22 in 10.0 mi South 3.5 mph - N/A   Overcast
2:52 AM 21.0 °F 16.2 °F 16.0 °F 81% 30.19 in 6.0 mi South 3.5 mph - N/A   Haze
3:17 AM 21.2 °F 13.6 °F 15.8 °F 80% 30.13 in 10.0 mi South 5.8 mph - N/A   Overcast
3:48 AM 21.2 °F - 15.8 °F 80% 30.12 in 10.0 mi Calm Calm - N/A   Overcast
3:52 AM 21.0 °F - 16.0 °F 81% 30.17 in 10.0 mi Calm Calm - N/A   Overcast
4:37 AM 21.2 °F - 15.8 °F 80% 30.09 in 10.0 mi Calm Calm - N/A   Overcast
4:52 AM 21.0 °F - 17.1 °F 85% 30.15 in 10.0 mi Calm Calm - N/A   Overcast
5:52 AM 21.9 °F 15.7 °F 18.0 °F 85% 30.14 in 10.0 mi South 4.6 mph - N/A   Overcast
5:59 AM 21.2 °F 16.4 °F 17.6 °F 86% 30.09 in 10.0 mi SSW 3.5 mph - N/A   Overcast
6:52 AM 21.9 °F 14.5 °F 19.0 °F 89% 30.14 in 10.0 mi SSW 5.8 mph - N/A   Overcast
7:52 AM 23.0 °F 15.8 °F 19.9 °F 88% 30.16 in 10.0 mi SSW 5.8 mph - N/A   Overcast
8:52 AM 24.1 °F 15.2 °F 19.9 °F 84% 30.16 in 10.0 mi SSW 8.1 mph - N/A   Overcast
9:52 AM 25.0 °F 15.5 °F 21.0 °F 85% 30.14 in 10.0 mi SSW 9.2 mph - N/A   Overcast
10:50 AM 28.4 °F 18.0 °F 23.0 °F 80% 30.08 in 10.0 mi SSW 12.7 mph - N/A   Overcast
10:52 AM 28.0 °F 17.5 °F 23.0 °F 81% 30.12 in 10.0 mi South 12.7 mph - N/A   Overcast
11:48 AM 30.2 °F 20.8 °F 24.8 °F 80% 30.05 in 10.0 mi SSW 11.5 mph - N/A   Partly Cloudy
11:52 AM 30.9 °F 22.2 °F 24.1 °F 76% 30.09 in 10.0 mi SSW 10.4 mph - N/A   Partly Cloudy
12:52 PM 35.1 °F 25.2 °F 25.0 °F 67% 30.04 in 10.0 mi SSW 16.1 mph - N/A   Clear
1:52 PM 36.0 °F 27.5 °F 26.1 °F 67% 30.02 in 10.0 mi South 12.7 mph - N/A   Clear
2:52 PM 39.0 °F 31.8 °F 28.0 °F 65% 30.00 in 10.0 mi SSW 11.5 mph - N/A   Clear
3:52 PM 39.9 °F 32.9 °F 28.0 °F 63% 30.00 in 10.0 mi SSW 11.5 mph - N/A   Clear
4:52 PM 41.0 °F 35.8 °F 28.0 °F 60% 30.01 in 10.0 mi South 8.1 mph - N/A   Clear
5:52 PM 35.1 °F 30.1 °F 28.0 °F 76% 30.02 in 10.0 mi SSE 5.8 mph - N/A   Clear
6:52 PM 34.0 °F 27.2 °F 27.0 °F 75% 30.04 in 10.0 mi South 8.1 mph - N/A   Clear
7:52 PM 32.0 °F 25.6 °F 27.0 °F 82% 30.06 in 10.0 mi SSE 6.9 mph - N/A   Clear
8:52 PM 32.0 °F 24.2 °F 27.0 °F 82% 30.06 in 10.0 mi South 9.2 mph - N/A   Clear
9:52 PM 33.1 °F 27.7 °F 28.9 °F 85% 30.07 in 10.0 mi SSE 5.8 mph - N/A   Clear
10:52 PM 32.0 °F 24.8 °F 28.0 °F 85% 30.07 in 10.0 mi SSE 8.1 mph - N/A   Clear
11:52 PM 32.0 °F 26.4 °F 28.0 °F 85% 30.07 in 10.0 mi SE 5.8 mph - N/A   Clear